Weather in Yermakovo

Russia / Kaliningrad Oblast     54°24′14″N   20°55′54″E
temp.,
°C
wind,
m/s
gust,
m/s
humid.,
%
clouds,
%
prec.,
mm/h
press.,
hPa
HPBL,
m
18 april, sun
sun1823:00+8ene349183 0.0 102155
02:00+7ene3493100 0.0 102168
05:00+6ne229378 0.0 102137
08:00+10e358380 0.0 1021243
11:00+14e3469100 0.0 1021779
14:00+16e3564100 0.6 10201182
17:00+16e256889 3.2 1020976
20:00+11n228976 6.8 102023
19 april, mon
mon1923:00+10ne349158 0.6 102166
02:00+8e33905 0.6 102142
05:00+6ene34881 0.0 102172
08:00+10e35830 0.0 1021231
11:00+15e35650 0.0 1021985
14:00+15e3457100 0.2 10201365
17:00+13e3668100 0.1 1020357
20:00+10ene387413 0.2 1021188
20 april, tue
tue2023:00+7e358198 0.0 102096
02:00+6e348841 0.0 102072
05:00+5e229213 0.0 101915
08:00+8ene227762 0.0 1019223
11:00+12ne346198 0.6 10171019
14:00+13n446295 1.8 10161137
17:00+12n456490 0.2 10151096
20:00+7nnw37865 0.2 1014147
21 april, wed
wed2123:00+5nw33886 0.0 101352
02:00+4nw23915 0.0 101249
05:00+3wnw359064 0.0 101194
08:00+8wnw477474 0.0 1011348
11:00+12wnw45585 0.0 10101251
14:00+13w555421 0.1 10091587
17:00+12wnw35544 0.0 1008993
20:00+7w227799 0.0 100713
22 april, thu
thu2223:00+5wnw6109094 0.3 1008549
02:00+4sw3119225 1.1 1008631
05:00+2sw614869 0.0 1007647
08:00+4sw8128488 0.0 10081148
11:00+5sw8137366 0.1 10081447
14:00+5wsw71194100 1.6 10091068
17:00+5wsw698967 1.4 1010965
20:00+3sw5118273 1.9 1009406